Location: Cieszkowy
(50.3290°N, 20.5336°E)
Time: 00:30:05
(UTC+00:00)

Cosmos 1603 - Pass Details

Date: 15 June 2024
Orbit: 829 x 860 km, 71.0° (Epoch: 18 July)

Event Time Altitude Azimuth Distance (km) Brightness Sun altitude
Rises 01:36:10 0° 326° (NW) 3,448 7.1 -6.5°
Reaches altitude 10° 01:38:45 10° 319° (NW) 2,506 6.3 -6.3°
Maximum altitude 01:44:05 41° 252° (WSW) 1,236 4.2 -5.7°
Drops below altitude 10° 01:49:23 10° 184° (S) 2,481 5.7 -5.1°
Sets 01:51:56 0° 177° (S) 3,409 6.4 -4.9°
